Temp
-16 -16 -16 -16 -17 -17 -17 -17 -16 -16 -16 -15 -15 -16 -16 -16 -16 -16 -16 -16 -16 -16 -16 -16 -16 -16 -16 -16 -16 -15 -15 -15 -15 -15 -15 -15 -15 -15 -15 -15 -15 -16
-16 -16 -16 -16 -17 -17 -17 -17 -17 -16 -16 -16 -16 -16 -16 -16 -16 -16 -16 -16 -16 -16 -16 -16 -16 -16 -16 -16 -16 -16 -16 -16 -16 -16 -16 -16 -16 -16 -16 -16 -16 -16
-16 -16 -16 -16 -17 -17 -17 -17 -17 -17 -16 -16 -16 -16 -16 -16 -16 -16 -17 -17 -17 -17 -16 -16 -16 -16 -16 -16 -16 -16 -16 -16 -16 -16 -16 -16 -16 -16 -16 -16 -16 -16
-16 -16 -16 -16 -16 -17 -17 -17 -17 -17 -17 -16 -16 -16 -16 -16 -16 -16 -17 -17 -17 -17 -17 -17 -17 -17 -17 -17 -17 -17 -17 -17 -17 -17 -17 -17 -17 -17 -17 -17 -17 -16
-17 -17 -16 -16 -16 -17 -17 -17 -17 -17 -17 -17 -17 -17 -17 -17 -17 -17 -17 -17 -18 -18 -18 -18 -17 -17 -17 -17 -17 -17 -17 -17 -17 -17 -17 -17 -17 -17 -17 -17 -17 -17
-17 -17 -16 -16 -17 -17 -17 -17 -17 -17 -17 -17 -17 -17 -17 -17 -17 -17 -17 -17 -18 -18 -18 -18 -18 -18 -18 -18 -17 -17 -17 -17 -17 -17 -17 -17 -17 -17 -17 -17 -17 -17
-17 -17 -17 -17 -17 -17 -17 -17 -17 -17 -18 -18 -17 -17 -17 -17 -17 -17 -18 -18 -18 -18 -18 -18 -18 -18 -18 -18 -18 -18 -18 -18 -18 -18 -17 -17 -17 -17 -17 -17 -17 -17
-17 -17 -17 -17 -17 -18 -18 -18 -18 -18 -18 -18 -18 -17 -17 -17 -17 -18 -18 -18 -18 -18 -18 -18 -18 -18 -18 -18 -18 -18 -18 -18 -18 -18 -18 -18 -18 -18 -18 -18 -18 -18
-17 -17 -17 -17 -17 -18 -18 -18 -18 -18 -18 -17 -17 -18 -18 -18 -18 -18 -18 -18 -18 -18 -18 -18 -18 -18 -18 -18 -18 -18 -18 -18 -18 -18 -18 -18 -18 -18 -18 -18 -18 -18
-17 -17 -17 -17 -17 -18 -18 -18 -18 -18 -18 -18 -17 -17 -18 -18 -18 -18 -18 -18 -18 -18 -18 -18 -18 -18 -18 -18 -18 -18 -18 -18 -18 -18 -18 -18 -18 -18 -18 -18 -18 -18
-17 -17 -17 -18 -18 -18 -18 -18 -18 -18 -18 -18 -18 -18 -18 -18 -18 -18 -18 -18 -18 -18 -18 -18 -18 -18 -18 -19 -19 -19 -19 -19 -19 -19 -18 -18 -18 -18 -18 -18 -18 -18
-18 -18 -18 -18 -18 -18 -18 -18 -18 -18 -18 -18 -18 -18 -18 -18 -18 -18 -18 -18 -18 -18 -18 -18 -18 -18 -18 -18 -19 -19 -19 -19 -19 -19 -19 -19 -19 -19 -18 -18 -18 -18
-18 -18 -18 -18 -18 -18 -18 -18 -18 -18 -17 -18 -18 -18 -18 -18 -18 -18 -18 -18 -19 -19 -18 -18 -18 -18 -18 -18 -18 -19 -19 -19 -19 -19 -19 -19 -19 -19 -19 -18 -18 -18
-18 -18 -18 -18 -18 -17 -18 -18 -18 -18 -18 -18 -18 -18 -18 -18 -18 -18 -19 -19 -19 -19 -19 -18 -18 -19 -19 -19 -19 -19 -19 -19 -19 -19 -19 -18 -18 -19 -19 -19 -19 -18
-18 -18 -18 -18 -18 -18 -18 -18 -18 -18 -18 -18 -18 -18 -18 -18 -18 -19 -19 -19 -19 -19 -19 -19 -19 -19 -19 -19 -19 -19 -19 -19 -19 -19 -19 -19 -18 -19 -19 -19 -19 -19
-18 -18 -18 -18 -18 -18 -18 -18 -18 -18 -18 -18 -18 -18 -18 -19 -19 -19 -19 -19 -19 -19 -19 -19 -19 -19 -19 -19 -19 -19 -19 -19 -19 -19 -19 -19 -19 -19 -19 -19 -19 -19
-19 -19 -19 -19 -19 -19 -19 -19 -19 -19 -18 -18 -18 -18 -18 -19 -19 -19 -19 -19 -19 -19 -19 -19 -20 -20 -20 -20 -20 -19 -20 -19 -19 -19 -19 -19 -19 -19 -19 -19 -19 -19
-19 -19 -19 -19 -19 -19 -19 -19 -19 -19 -19 -19 -19 -19 -19 -19 -19 -19 -19 -19 -19 -20 -20 -20 -20 -20 -20 -20 -20 -20 -20 -20 -20 -20 -20 -19 -19 -19 -19 -19 -19 -19
-19 -19 -19 -19 -19 -19 -19 -19 -19 -19 -19 -19 -19 -19 -19 -19 -19 -19 -19 -19 -19 -20 -20 -20 -20 -20 -20 -20 -20 -20 -20 -20 -20 -20 -20 -20 -20 -19 -19 -19 -19 -19
-20 -20 -20 -20 -20 -20 -20 -20 -19 -20 -20 -20 -19 -19 -19 -19 -20 -20 -20 -20 -20 -20 -20 -20 -20 -20 -20 -20 -20 -20 -20 -20 -20 -20 -20 -20 -20 -20 -20 -20 -20 -20
-20 -20 -20 -20 -20 -20 -20 -20 -20 -20 -20 -20 -20 -20 -20 -20 -20 -20 -20 -20 -20 -20 -20 -20 -20 -20 -20 -20 -20 -20 -20 -20 -20 -20 -20 -20 -20 -20 -20 -20 -20 -20
-21 -21 -21 -21 -21 -20 -20 -20 -20 -20 -20 -20 -20 -20 -20 -20 -20 -20 -20 -20 -21 -21 -21 -21 -21 -21 -21 -21 -20 -20 -20 -20 -20 -20 -20 -20 -20 -20 -20 -21 -21 -21
-21 -21 -21 -21 -21 -21 -21 -20 -20 -20 -20 -20 -20 -20 -20 -20 -20 -21 -21 -21 -21 -21 -21 -21 -21 -21 -21 -21 -21 -21 -21 -21 -21 -21 -21 -21 -21 -21 -21 -21 -21 -21
-21 -21 -21 -21 -21 -21 -21 -21 -21 -21 -21 -21 -21 -21 -21 -21 -21 -21 -21 -21 -21 -21 -22 -22 -22 -22 -21 -21 -21 -21 -21 -21 -21 -21 -21 -21 -21 -21 -21 -21 -21 -21
-21 -21 -21 -21 -21 -21 -21 -21 -21 -21 -21 -21 -21 -21 -21 -21 -21 -21 -21 -21 -21 -22 -22 -22 -22 -22 -22 -22 -22 -21 -21 -21 -21 -21 -21 -21 -21 -21 -21 -21 -21 -21
-21 -21 -21 -21 -21 -22 -22 -21 -21 -22 -22 -21 -21 -21 -21 -21 -21 -21 -22 -22 -22 -22 -22 -22 -22 -22 -22 -22 -22 -21 -21 -22 -22 -22 -21 -22 -22 -22 -22 -22 -22 -21
Height
5746 5746 5745 5744 5744 5744 5744 5744 5745 5745 5745 5745 5745 5745 5745 5745 5745 5745 5746 5746 5747 5748 5748 5749 5750 5750 5750 5750 5751 5751 5751 5751 5751 5751 5751 5751 5751 5751 5750 5750 5750 5750
5743 5743 5742 5742 5742 5742 5741 5741 5742 5743 5743 5743 5743 5743 5743 5743 5743 5743 5744 5745 5746 5746 5747 5748 5749 5749 5749 5749 5749 5749 5749 5749 5749 5749 5749 5749 5749 5749 5749 5749 5749 5749
5739 5740 5739 5738 5739 5739 5738 5739 5740 5740 5740 5740 5741 5741 5741 5740 5740 5741 5742 5743 5744 5745 5745 5746 5747 5747 5747 5747 5747 5747 5747 5748 5748 5748 5748 5748 5748 5748 5748 5747 5747 5747
5735 5736 5736 5736 5736 5735 5735 5736 5737 5738 5738 5738 5738 5738 5738 5738 5738 5739 5739 5740 5741 5742 5743 5744 5745 5745 5746 5746 5746 5746 5746 5746 5746 5746 5746 5746 5746 5746 5746 5746 5746 5746
5731 5732 5732 5733 5733 5732 5733 5734 5734 5735 5736 5736 5736 5736 5736 5736 5737 5737 5738 5738 5739 5740 5741 5742 5743 5743 5744 5744 5744 5744 5744 5744 5744 5744 5744 5744 5745 5745 5745 5745 5745 5745
5730 5730 5730 5729 5729 5730 5731 5732 5732 5733 5733 5734 5734 5734 5735 5735 5736 5736 5737 5737 5738 5738 5739 5740 5740 5741 5742 5742 5742 5743 5743 5743 5743 5743 5743 5743 5743 5743 5743 5743 5743 5743
5729 5730 5729 5728 5728 5729 5730 5730 5731 5731 5732 5732 5733 5733 5733 5734 5734 5735 5735 5735 5736 5737 5737 5738 5739 5739 5739 5740 5740 5741 5741 5741 5742 5742 5742 5742 5742 5742 5742 5742 5742 5742
5727 5727 5727 5727 5727 5728 5729 5728 5729 5729 5729 5730 5730 5731 5732 5732 5732 5732 5733 5734 5734 5735 5735 5736 5737 5737 5738 5738 5738 5739 5739 5740 5740 5741 5741 5741 5741 5741 5741 5741 5741 5740
5725 5725 5724 5724 5725 5726 5726 5726 5725 5726 5726 5727 5727 5728 5729 5729 5730 5730 5731 5731 5731 5732 5733 5733 5734 5735 5735 5736 5736 5737 5738 5738 5739 5739 5739 5739 5739 5739 5739 5739 5739 5739
5722 5722 5721 5721 5721 5722 5723 5723 5722 5722 5723 5723 5723 5724 5725 5726 5727 5728 5728 5728 5728 5729 5730 5730 5731 5731 5732 5733 5733 5734 5735 5736 5736 5737 5737 5737 5737 5737 5737 5737 5737 5737
5719 5719 5719 5719 5719 5719 5720 5720 5719 5719 5719 5720 5720 5721 5722 5723 5723 5724 5724 5725 5725 5726 5727 5727 5728 5728 5729 5729 5730 5731 5732 5733 5733 5734 5734 5734 5735 5735 5734 5734 5734 5734
5716 5716 5717 5717 5717 5717 5716 5716 5716 5716 5716 5717 5718 5719 5719 5720 5720 5721 5721 5721 5722 5723 5724 5724 5725 5726 5726 5727 5727 5727 5728 5729 5730 5730 5731 5731 5731 5731 5731 5731 5731 5731
5713 5713 5714 5714 5713 5713 5713 5713 5713 5713 5713 5714 5716 5717 5717 5718 5718 5719 5719 5720 5720 5721 5721 5722 5722 5722 5723 5723 5724 5724 5725 5725 5726 5727 5727 5727 5727 5727 5727 5727 5727 5727
5709 5710 5710 5709 5709 5710 5710 5710 5711 5711 5712 5713 5713 5714 5715 5715 5715 5716 5717 5717 5717 5718 5719 5719 5718 5718 5719 5719 5720 5721 5721 5722 5722 5723 5723 5723 5723 5722 5722 5723 5723 5723
5705 5705 5706 5706 5706 5707 5708 5708 5708 5709 5710 5711 5711 5712 5712 5713 5713 5713 5714 5714 5714 5715 5716 5716 5715 5714 5714 5715 5715 5716 5717 5718 5718 5718 5718 5718 5718 5718 5718 5719 5719 5719
5700 5700 5701 5702 5702 5704 5705 5705 5705 5707 5707 5707 5708 5708 5709 5709 5710 5710 5711 5711 5711 5711 5711 5712 5711 5710 5710 5711 5712 5712 5713 5713 5713 5713 5713 5714 5714 5714 5714 5714 5714 5714
5695 5695 5696 5697 5698 5699 5700 5701 5702 5703 5704 5703 5703 5704 5705 5704 5703 5705 5707 5707 5706 5705 5705 5706 5706 5706 5706 5707 5707 5708 5708 5709 5709 5709 5709 5709 5709 5709 5709 5709 5709 5709
5689 5690 5690 5692 5693 5694 5695 5696 5697 5698 5699 5699 5699 5701 5701 5699 5698 5699 5701 5701 5700 5699 5700 5700 5701 5701 5701 5702 5703 5703 5704 5704 5704 5704 5704 5704 5704 5704 5704 5703 5703 5703
5683 5683 5684 5685 5686 5687 5689 5690 5691 5692 5693 5694 5695 5696 5695 5694 5694 5695 5695 5695 5694 5695 5695 5695 5696 5696 5697 5697 5698 5698 5699 5699 5698 5698 5698 5698 5698 5698 5697 5697 5697 5697
5676 5677 5677 5678 5679 5680 5682 5683 5684 5685 5687 5688 5689 5689 5689 5688 5689 5689 5689 5690 5690 5690 5689 5690 5690 5690 5691 5692 5692 5692 5692 5692 5692 5692 5692 5692 5691 5691 5691 5691 5691 5690
5671 5671 5671 5672 5672 5673 5674 5676 5677 5679 5680 5681 5681 5682 5682 5682 5682 5683 5683 5683 5683 5683 5683 5683 5684 5684 5685 5685 5685 5685 5685 5685 5685 5685 5685 5685 5685 5685 5685 5684 5684 5684
5665 5666 5666 5666 5667 5667 5668 5669 5670 5671 5672 5673 5674 5675 5675 5675 5676 5676 5676 5676 5676 5676 5676 5676 5677 5677 5677 5677 5678 5678 5678 5678 5678 5678 5678 5678 5678 5678 5678 5678 5678 5678
5658 5659 5660 5660 5660 5661 5662 5662 5663 5664 5665 5666 5667 5667 5668 5669 5669 5669 5669 5669 5669 5669 5669 5669 5670 5670 5670 5670 5670 5671 5671 5671 5671 5671 5671 5671 5671 5672 5671 5671 5672 5671
5651 5652 5653 5653 5653 5654 5655 5655 5656 5657 5658 5659 5659 5660 5661 5662 5663 5663 5663 5663 5663 5663 5663 5663 5663 5663 5663 5663 5663 5664 5664 5664 5664 5664 5665 5665 5665 5665 5665 5665 5665 5665
5644 5645 5646 5646 5647 5648 5648 5649 5650 5651 5652 5652 5653 5654 5655 5656 5656 5657 5657 5657 5657 5657 5657 5657 5657 5657 5656 5656 5657 5657 5657 5657 5657 5657 5658 5658 5658 5658 5658 5658 5658 5657
5638 5639 5640 5640 5641 5641 5642 5643 5644 5645 5646 5646 5647 5648 5649 5650 5650 5651 5651 5651 5651 5651 5651 5651 5651 5651 5651 5651 5651 5651 5651 5651 5651 5651 5651 5651 5651 5651 5651 5651 5650 5650
Wind_Speed
18 18 19 18 18 20 24 24 19 17 18 16 13 12 11 12 11 11 10 10 10 10 10 10 10 9 9 10 10 11 12 13 14 14 15 15 15 15 16 16 16 16
19 18 18 16 14 19 23 21 17 16 16 15 13 12 12 11 10 8 7 7 8 9 10 11 12 11 11 10 10 10 11 11 12 12 13 13 13 13 13 14 14 15
18 16 15 13 14 20 22 19 16 16 15 14 12 12 12 11 9 7 6 5 6 8 9 11 12 12 12 11 11 10 10 10 10 11 11 11 11 11 12 12 13 13
17 16 15 13 15 21 21 17 16 16 15 14 13 13 12 12 11 9 8 6 5 6 7 9 10 11 12 12 11 11 11 11 11 11 11 11 11 11 12 12 13 13
16 14 14 13 16 21 20 17 16 15 16 16 15 14 14 13 12 12 11 9 8 7 6 7 8 9 10 11 12 12 12 13 13 13 13 12 12 13 13 13 14 14
15 13 14 14 16 19 18 15 14 15 16 16 16 15 14 14 13 12 11 11 10 10 9 8 9 9 10 11 11 11 12 12 13 13 13 13 13 13 14 14 14 15
16 15 15 15 16 17 16 16 16 16 18 18 17 16 16 15 14 12 12 12 12 12 11 10 10 10 11 11 11 11 11 12 12 12 13 13 14 15 16 16 16 17
16 17 18 18 19 19 19 21 21 20 21 21 20 19 18 18 16 14 13 13 12 12 12 12 12 12 13 13 14 14 14 14 14 14 14 14 15 17 18 18 19 19
15 17 18 20 21 20 21 23 25 26 25 24 23 22 21 19 18 15 14 14 14 13 13 13 13 14 15 15 16 16 16 16 16 16 16 17 18 18 18 19 19 20
15 15 15 16 18 20 21 22 25 28 28 27 26 25 23 21 20 19 17 16 16 16 15 15 14 15 16 17 17 18 18 18 19 19 20 21 20 20 20 20 20 21
17 17 16 15 16 17 20 22 26 28 28 27 27 26 24 22 21 21 20 18 18 17 17 17 17 17 18 18 19 20 20 20 21 22 23 24 24 24 23 22 21 22
20 21 20 19 20 20 21 23 28 29 26 23 23 23 23 23 22 21 20 18 18 18 18 18 19 20 20 20 20 21 22 22 22 23 24 25 27 27 26 25 24 23
22 23 23 23 23 21 21 22 27 31 28 23 22 21 21 21 22 22 21 21 21 20 20 21 22 23 23 24 23 24 25 25 25 24 24 25 28 29 29 28 27 26
25 25 25 25 23 20 20 21 25 30 30 26 25 24 22 22 22 22 22 22 22 21 22 24 25 24 24 25 26 27 29 30 29 28 27 27 28 28 29 30 30 29
28 27 27 26 24 21 20 21 22 25 28 29 28 25 22 21 21 21 22 23 24 25 26 26 26 25 25 25 27 28 31 33 33 32 31 31 31 29 27 29 32 32
32 30 29 28 27 24 23 25 25 24 27 29 28 26 25 26 29 30 31 32 33 33 29 27 27 28 28 28 28 29 30 32 34 34 34 34 35 33 30 31 33 34
35 33 31 31 30 28 27 30 30 28 30 31 31 31 32 35 37 35 33 35 37 35 32 33 34 33 31 31 32 32 33 34 35 35 36 36 37 37 36 36 38 39
40 39 37 35 34 32 32 32 33 32 32 34 35 35 33 31 33 33 33 34 35 33 33 34 34 33 32 32 33 34 35 36 37 38 39 40 40 41 42 42 43 43
42 42 41 40 39 38 38 37 35 34 34 35 36 35 34 33 34 35 34 33 31 31 33 33 32 32 32 33 34 36 37 38 39 40 41 42 44 45 45 46 46 46
42 42 43 42 42 41 41 40 38 37 37 37 37 37 36 37 36 35 34 32 31 32 33 34 35 35 36 37 38 38 39 39 40 41 42 43 44 45 46 46 46 46
42 42 43 43 43 43 43 42 41 40 39 38 38 38 38 37 37 36 35 34 33 34 36 38 39 40 41 41 41 40 40 41 41 42 42 43 43 44 44 44 44 44
45 44 44 45 45 46 45 45 45 44 43 41 40 40 40 39 38 36 36 36 37 38 39 41 42 43 44 44 44 43 41 41 42 43 43 43 43 44 44 44 45 45
45 46 46 46 46 46 46 46 46 46 46 45 44 42 41 40 38 38 38 39 40 41 41 42 44 45 46 47 47 45 43 42 42 43 43 44 44 44 44 45 45 46
43 45 46 46 46 46 46 46 46 46 46 46 45 44 42 41 40 40 40 41 41 42 43 44 45 47 48 49 49 48 47 46 44 44 44 44 44 45 45 46 46 47
44 44 45 45 46 46 46 46 46 45 45 45 45 44 44 43 42 42 42 42 43 44 45 46 47 48 50 50 50 50 49 48 48 47 46 45 45 45 46 46 47 48
44 44 45 45 45 46 47 47 46 45 45 45 46 46 46 45 45 44 44 45 46 47 48 49 49 50 51 51 51 50 49 49 48 47 46 46 45 45 45 45 46 46
Wind_Direction
281 284 288 284 276 278 281 281 278 269 262 258 256 258 257 250 241 235 233 234 234 235 236 239 240 241 244 247 249 251 251 252 252 252 252 253 253 254 255 255 256 257
285 286 284 279 272 275 276 274 268 262 260 258 258 259 258 253 244 236 239 243 243 244 244 243 243 242 242 242 243 244 248 251 253 254 255 255 256 256 256 256 257 257
279 275 275 273 260 259 264 265 260 257 257 256 255 255 256 255 248 240 239 247 254 254 251 248 245 243 241 241 240 239 241 246 250 254 257 258 259 259 258 259 259 260
276 268 268 268 257 252 252 250 251 255 256 253 251 251 253 255 252 244 232 226 234 247 252 252 249 247 247 244 243 240 239 241 245 249 253 256 259 261 261 261 262 263
272 266 267 265 255 250 245 241 246 253 254 252 250 250 252 255 255 251 242 232 228 233 241 249 251 252 254 253 251 249 246 244 243 243 245 248 252 256 259 262 265 266
273 272 270 264 251 246 244 246 251 254 253 253 255 257 260 259 257 256 254 247 241 239 240 244 249 253 254 254 253 252 252 251 250 250 250 252 255 259 263 266 269 271
283 284 278 269 260 259 263 268 268 261 254 254 258 263 265 261 256 254 253 252 251 251 255 256 257 259 257 254 251 250 251 251 252 256 258 262 266 268 270 271 271 271
286 292 289 278 269 268 272 275 272 262 254 254 255 258 259 255 253 252 251 252 255 257 260 262 262 264 263 259 257 257 257 256 257 258 260 266 272 274 274 274 273 273
291 297 293 282 274 272 273 274 271 264 260 259 257 254 251 248 247 250 251 252 254 254 256 259 261 264 265 264 264 264 264 266 268 268 269 272 274 275 274 273 273 273
294 299 296 284 274 272 272 268 265 263 261 262 264 261 257 252 245 243 247 249 252 254 254 257 259 260 262 263 265 267 267 270 272 274 275 275 275 274 272 271 270 269
286 293 297 288 277 277 277 265 254 256 258 259 263 266 266 263 251 243 246 249 251 254 255 257 258 258 260 262 264 266 266 269 272 273 275 275 274 272 270 268 265 263
281 287 291 289 284 281 282 270 255 255 259 253 255 263 268 265 253 245 245 245 246 253 257 257 259 260 262 262 262 264 265 267 270 274 276 277 276 272 268 267 263 261
282 286 287 289 288 278 274 271 258 254 255 250 249 255 259 260 254 245 245 249 252 256 260 261 263 268 269 268 265 263 263 264 269 273 274 276 279 273 265 263 263 261
285 288 286 286 289 278 266 265 259 253 251 251 252 252 251 255 253 242 241 247 253 261 266 266 266 270 273 275 273 269 266 267 270 273 271 273 280 276 264 260 262 263
286 287 284 282 284 278 265 263 263 256 252 253 252 248 245 248 253 251 247 249 258 269 272 266 264 266 268 273 277 275 273 271 272 275 274 274 278 277 268 263 264 265
283 283 283 281 278 275 266 265 268 263 258 254 247 242 248 260 268 271 267 265 270 273 267 262 266 270 269 271 274 274 274 274 274 275 275 274 275 274 271 268 268 269
280 282 283 282 278 273 268 268 269 267 263 261 258 261 269 274 274 273 269 268 271 271 266 265 271 274 273 272 272 272 272 272 273 273 273 272 273 273 272 270 270 271
278 279 281 281 278 275 274 274 274 271 267 267 268 271 272 270 269 270 269 268 270 270 269 269 272 274 275 275 274 273 272 271 270 270 271 271 271 271 272 272 272 272
276 277 278 278 277 275 276 277 276 274 272 270 269 268 266 262 264 268 270 271 272 270 269 270 272 274 275 277 276 275 272 271 270 269 269 268 269 269 270 271 272 273
274 275 276 277 277 276 276 276 276 275 274 272 269 268 266 266 266 267 268 271 272 271 271 274 275 276 277 279 279 277 274 271 270 269 268 268 268 269 269 270 271 272
272 272 273 274 275 275 276 275 275 275 275 274 271 269 268 268 268 269 270 272 274 275 277 279 280 280 281 282 282 281 278 274 272 271 270 270 270 271 271 272 272 272
269 269 269 270 271 272 273 274 274 274 274 273 272 272 271 270 270 272 274 277 279 281 282 282 283 283 284 284 285 284 281 277 274 273 273 272 272 273 273 273 273 273
267 266 267 267 268 269 271 272 272 272 272 272 272 273 273 271 270 274 276 278 280 282 283 283 284 284 285 285 286 285 283 279 275 273 272 272 272 272 272 273 273 273
265 265 266 266 267 269 269 270 271 270 270 269 269 271 271 269 270 274 277 278 280 281 282 283 283 284 285 285 285 285 284 282 279 276 274 273 272 272 272 272 273 273
261 263 265 265 266 267 267 267 268 268 268 268 267 267 267 267 270 274 277 279 280 280 281 282 282 282 283 283 283 283 283 282 281 279 278 277 277 276 275 275 275 275
259 261 263 265 266 266 266 265 265 265 265 265 265 265 265 265 268 273 277 280 281 280 280 280 279 279 280 281 281 281 280 279 279 279 279 279 279 278 278 277 277 276